User: anonymous   Login
Location: Wien
(48.2082°N, 16.3738°E)
Time: 23:26:31
(UTC+02:00)
Language:

YUBILEINY - Orbit

View from above orbital plane
View from above orbital plane
View from above satellite
View from above satellite

Ground track
Ground track

The orbit data is extracted from the following two-line orbital elements,

1 32953U 08025A   24115.47158990  .00000042  00000-0  23437-3 0  9991
2 32953  82.4984 122.9004 0018540 219.0613 140.9129 12.43139477722454
Epoch (UTC): 24 April 2024 11:19:05
Eccentricity: 0.0018540
inclination: 82.4984°
perigee height: 1479 km
apogee height: 1508 km
right ascension of ascending node: 122.9004°
argument of perigee: 219.0613°
revolutions per day: 12.43139477
mean anomaly at epoch: 140.9129°
orbit number at epoch: 72245

The dashed part of the orbit path shows where the satellite is in the earth's shadow,  

DLR